Terug naar catalogus

SARI-1

ActiefWetenschapSSO
NORAD 66668·PAYLOAD·🇬🇷 Greece

Gelanceerd Nov 28, 2025 vanaf Vandenberg Space Force Base

Loading…

Volgende Passages (komende 24 uur)

TLE

VersSource: Space-Track

Epoch: Sep 14, 2026, 22:25 UTC

1 66668U 25276C   26257.93434604  .00036985  00000-0  11686-2 0  9994
2 66668  97.3974 331.8298 0006253  58.6208 301.5645 15.32702846 44215

Volg SARI-1 in realtime met AllMySat

Download on the App Store